Volver al catálogo

STARLINK-6303

ActivoComunicacionesVLEO
NORAD 56393·PAYLOAD·🇺🇸 United States

Lanzado May 4, 2023 desde Cape Canaveral Space Force Station

Loading…

Próximos Pases (próximas 24 horas)

TLE

ActualizadoSource: CelesTrak SupGP

Época: Sep 15, 2026, 02:01 UTC

1 56393C 23061V   26258.08451389 -.00023176  00000+0 -83961-3 0  2587
2 56393  42.9997 208.3151 0001398 265.1212 141.3316 15.27583233    17

Sigue STARLINK-6303 en tiempo real con AllMySat

Download on the App Store